Showing default

GAOFEN 11, 43585

Orbit data source: Space-Track

GAOFEN 11, 43585 is a payload satellite owned by PLA SSF (CN) in SSO that was launched on Tue, 31 Jul 2018 UTC via a CHANG ZHENG 4B launch vehicle from the Taiyaun Space Center, China (TSC). Payload-class satellites include a variety of spacecraft equipped with specific instruments for various scientific and technological missions. These include communications satellites like Starlink; space stations such as the ISS; scientific satellites like the Hubble; Earth observation satellites from companies like Planet Labs, Umbra, and HawkEye 360; GPS; miniature CubeSats for education and research; and military/defense satellites.

Loading next visibility...
Identifier
43585, 2018-063A
Orbit
SSO
Country
Flag of CNCN / PRC
Related business
Manufacturer
CAST
Mission
Operational Defense Imaging
Bus & Motor
YW-5?, Unknown motor
Mass
~3,000 kg wet, ~3,000 kg dry
Launch date (UTC)
2018-07-31 (7 years ago)
Launch vehicle
CHANG ZHENG 4B
Launch site
Taiyaun Space Center, China (TSC)
Object type
Payload
Rocket body
Debris
Shape & HBR
Box + 2 Pan, 4.0 m
Radar Cross Section
9.231 m², Large (>1 m²)

Expand to show TLE details & history
Last TLE update: 13 hours ago

TLE from 13 hours ago
0 GAOFEN 11
1 43585U 18063A   25261.33762166  .00011740  00000-0  24309-3 0  9997
2 43585  97.1702 325.1268 0004461 244.7611 115.3177 15.45907946398218
Epoch: 2025-09-18T08:06Z
TLE epoch observation values (Epoch: 2025-09-18T08:06:10.511Z)
Latitude
0.00001°
Longitude
-153.91766°
Altitude
433.144 km
Speed
7.651 km/s
True Right ascension
21h 40m 30s
True Declination
0° 00' 00"
Sunlit
Object was in full shadow at epoch
Visualization orbit readout
Latitude
Unknown
Longitude
Unknown
Altitude
Unknown
Speed
Unknown
Apparent Right ascension
Unknown
Apparent Declination
Unknown
Sunlit
N/A
Visualization observer readout
Local Sidereal Time
13:45:06
Azimuth
Unknown
Elevation
Unknown
Doppler factor
Unknown
Orbital elements
Apogee altitude
428.668 km
Perigee altitude
422.598 km
Semi-major axis
6,803.77 km
Eccentricity
0.00045
Inclination
97.1702°
RAAN
325.1268°
Arg. of periapsis
244.7611°
True anomaly
115.3639°
Mean anomaly
115.3177°
Eccentric anomaly
115.3408°
Mean motion
3.8674 °/min
Orbital period
93.09 mins
BSTAR
0.00024309
Loading maneuver chart data...
Computing Atmospheric mass density...
Loading historical data...
Loading historical data...
Loading historical data...
Loading historical data...
Loading historical data...
Loading historical data...
Loading historical data...
Other satellites on launch #63 in the year 2018 (2018-07-31 UTC)

Documentation

Showing up to 5 results
|